STARLINK-32821, 63078

Orbit data source: Space-Track

STARLINK-32821, 63078 is a payload satellite owned by SpaceX/Seattle (US) in LEO that was launched on Sun, 23 Feb 2025 UTC via an FALCON 9 launch vehicle from the Air Force Western Test Range (AFWTR). Payload-class satellites include a variety of spacecraft equipped with specific instruments for various scientific and technological missions. These include communications satellites like Starlink; space stations such as the ISS; scientific satellites like the Hubble; Earth observation satellites from companies like Planet Labs, Umbra, and HawkEye 360; GPS; miniature CubeSats for education and research; and military/defense satellites.

Loading next visibility...
Identifier
63078, 2025-037B
Orbit
LEO
Country
Flag of USUS
Related business
Manufacturer
SpaceX/Seattle
Mission
Operational Commercial Communications
Bus & Motor
STARLINK V2M, Unknown motor
Mass
730 kg wet, ~700 kg dry
Launch date (UTC)
2025-02-23 (1 year ago)
Launch vehicle
FALCON 9
Launch site
Air Force Western Test Range (AFWTR)
Object type
Payload
Rocket body
Debris
Shape & HBR
Box + 2 Pan, 17.7 m
Radar Cross Section
33.884 m², Large (>1 m²)

Expand to show TLE details & history
Last TLE update: 16 hours ago

TLE from 16 hours ago
0 STARLINK-32821
1 63078U 25037B   26171.19121417  .00004657  00000-0  39774-3 0  9999
2 63078  70.0011  96.0984 0002854 268.3442  91.7390 14.98339514 73937
Epoch: 2026-06-20T04:35Z
TLE epoch observation values (Epoch: 2026-06-20T04:35:20.904Z)
Latitude
-0.00003°
Longitude
118.85191°
Altitude
574.511 km
Speed
7.574 km/s
True Right ascension
06h 24m 23s
True Declination
0° 00' 00"
Sunlit
Object was in daylight at epoch
Visualization orbit readout
Latitude
Unknown
Longitude
Unknown
Altitude
Unknown
Speed
Unknown
Apparent Right ascension
Unknown
Apparent Declination
Unknown
Sunlit
N/A
Visualization observer readout
Local Sidereal Time
07:17:57
Azimuth
Unknown
Elevation
Unknown
Doppler factor
Unknown
Orbital elements
Apogee altitude
571.958 km
Perigee altitude
567.992 km
Semi-major axis
6,948.112 km
Eccentricity
0.00029
Inclination
70.0011°
RAAN
96.0984°
Arg. of periapsis
268.3442°
True anomaly
91.77169°
Mean anomaly
91.739°
Eccentric anomaly
91.75534°
Mean motion
3.74751 °/min
Orbital period
96.06 mins
BSTAR
0.00039774
Loading maneuver chart data...
Computing Atmospheric mass density...
Loading historical data...
Loading historical data...
Loading historical data...
Loading historical data...
Loading historical data...
Loading historical data...
Loading historical data...

Documentation

Showing up to 5 results
|